Location: Kra?nica
(53.4833°N, 14.6167°E)
Time: 17:36:34
(UTC+00:00)

SL-16 R/B - Pass Details

Date: 23 May 2024
Orbit: 985 x 1006 km, 99.7° (Epoch: 13 June)

Event Time Altitude Azimuth Distance (km) Brightness Sun altitude
Rises 01:48:40 0° 173° (S) 3,722 5.1 -7.3°
Reaches altitude 10° 01:51:10 10° 177° (S) 2,777 4.5 -7.0°
Maximum altitude 01:57:21 61° 257° (WSW) 1,136 2.7 -6.4°
Drops below altitude 10° 02:03:35 10° 338° (NNW) 2,794 5.3 -5.8°
Sets 02:06:07 0° 342° (NNW) 3,747 6.0 -5.5°
